[[{"header":{"parameterUnit":"m.s-1","parameterCategory":1,"la1":30.2991,"la2":30.254,"lo1":-89.0895,"lo2":-89.0444,"dy":0.0017,"dx":0.0017,"nx":28,"ny":28,"refTime":"2025-01-07T09:00:00:Z","depth":0,"parameterNumber":2,"parameterNumberName":"U-component_of_WINDS"},"data":[0,0,0,0,0,0,0,0,0,0,0,0,0,0,0,0,0,0,0,0,0,0,0,0,0,0,0,0,0,0,0,0,0,0,0,0,0,0,0,0,0,0,0,0,0,0,0,0,0,0,0,0,0,0,0,0,0,0,-0.3857,-0.3858,0,-0.3878,-0.3879,-0.3879,-0.3868,-0.3867,-0.3867,-0.3866,-0.3889,-0.389,-0.3892,0,0,0,0,0,0,0,0,0,0,0,0,0,-0.3808,-0.3809,-0.3857,-0.3858,-0.3858,-0.3878,-0.3879,-0.3879,-0.3868,-0.3867,-0.3867,-0.3866,-0.3889,-0.389,-0.3892,0,0,0,0,0,0,0,0,0,0,0,0,0,-0.383,-0.381,-0.3857,-0.3855,-0.3855,-0.3878,-0.3879,-0.3879,-0.3868,-0.3867,-0.3867,-0.3866,-0.3889,-0.389,-0.3892,-0.3919,0,0,-0.3897,-0.3898,0,0,0,0,0,0,0,0,-0.3828,-0.3831,-0.3855,-0.3855,-0.3855,-0.387,-0.387,-0.3893,-0.3869,-0.3863,-0.3866,-0.3865,-0.3884,-0.3886,-0.3891,-0.392,-0.3921,-0.3897,-0.3898,-0.3899,-0.3899,0,0,0,0,0,0,0,-0.3827,-0.3831,-0.3866,-0.3855,-0.3855,-0.3853,-0.3855,-0.3874,-0.3878,-0.3864,-0.3863,-0.3865,-0.3883,-0.389,-0.3892,-0.3922,-0.3897,-0.3899,-0.39,-0.39,-0.3974,-0.3974,0,0,0,0,0,0,-0.3826,-0.3829,-0.3865,-0.3866,-0.3839,-0.3855,-0.3857,-0.3866,-0.3878,-0.3879,-0.3866,-0.3865,-0.3887,-0.389,-0.3893,-0.3926,-0.3899,-0.3901,-0.3902,-0.3973,-0.3974,-0.3975,0,0,0,0,0,0,-0.3825,-0.3829,-0.3864,-0.3848,-0.3852,-0.3856,-0.3866,-0.3867,-0.3873,-0.388,-0.388,-0.3872,-0.3887,-0.389,-0.3913,-0.3926,-0.3901,-0.3903,-0.3972,-0.3973,-0.3974,-0.3992,0,0,0,0,0,0,-0.3823,-0.3829,-0.3839,-0.3848,-0.3853,-0.3884,-0.3867,-0.3868,-0.3876,-0.3874,-0.3885,-0.3886,-0.3886,-0.391,-0.3914,-0.3928,-0.3904,-0.397,-0.3972,-0.3974,-0.399,-0.3994,-0.3997,0,0,0,0,0,-0.3821,-0.3843,-0.3839,-0.3844,-0.3866,-0.3884,-0.3887,-0.3887,-0.3877,-0.3888,-0.3892,-0.3886,-0.3924,-0.3912,-0.3917,-0.3932,-0.397,-0.3972,-0.3974,-0.3989,-0.3993,-0.3997,0,0,0,0,0,0,-0.3837,-0.3845,-0.384,-0.3866,-0.3874,-0.3882,-0.3896,-0.3891,-0.3903,-0.3902,-0.3901,-0.3903,-0.3926,-0.3931,-0.3918,-0.3959,-0.3945,-0.3948,-0.3955,-0.3959,-0.3962,-0.3961,-0.3906,0,0,0,0,0,-0.3843,-0.3857,-0.3863,-0.3885,-0.3889,-0.3892,-0.39,-0.3898,-0.3908,-0.3911,-0.3917,-0.3926,-0.394,-0.395,-0.3963,-0.399,-0.3992,-0.4002,-0.4006,-0.4008,-0.4011,-0.4026,-0.4031,-0.3982,-0.3982,-0.3982,0,0,-0.3856,-0.3862,-0.3871,-0.3888,-0.3894,-0.3909,-0.3895,-0.3911,-0.3923,-0.3914,-0.3935,-0.394,-0.395,-0.3975,-0.3986,-0.398,-0.4025,-0.4011,-0.4013,-0.4015,-0.4029,-0.4033,-0.4038,-0.3983,-0.3983,-0.3983,0,0,-0.3888,-0.3893,-0.3912,-0.3919,-0.3928,-0.393,-0.3934,-0.3943,-0.3945,-0.3966,-0.396,-0.3973,-0.3998,-0.4005,-0.4012,-0.4046,-0.4041,-0.405,-0.4068,-0.4082,-0.4086,-0.4089,-0.4102,-0.4106,-0.4053,-0.4053,-0.4053,0,-0.3903,-0.3925,-0.3922,-0.3939,-0.3947,-0.3939,-0.3958,-0.3965,-0.3978,-0.3984,-0.3976,-0.4006,-0.4012,-0.4039,-0.4047,-0.4053,-0.4058,-0.4049,-0.4085,-0.4089,-0.4092,-0.4104,-0.4109,-0.4054,-0.4054,-0.4054,-0.4053,0,-0.3943,-0.3959,-0.3973,-0.3986,-0.3995,-0.4013,-0.4013,-0.4022,-0.402,-0.4022,-0.4044,-0.4051,-0.4065,-0.4071,-0.4069,-0.4097,-0.4093,-0.4085,-0.4072,-0.4098,-0.4109,-0.4114,-0.4055,-0.4055,-0.4055,-0.4054,0,0,-0.3987,-0.3997,-0.4003,-0.4008,-0.4018,-0.403,-0.4047,-0.406,-0.4069,-0.4078,-0.4093,-0.4113,-0.4106,-0.4114,-0.4112,-0.4125,-0.4151,-0.4115,-0.4116,-0.4123,-0.4183,-0.419,-0.4195,-0.4147,-0.4148,-0.4149,-0.4182,0,-0.402,-0.405,-0.4048,-0.4076,-0.409,-0.4082,-0.4097,-0.4105,-0.4107,-0.4119,-0.4122,-0.4136,-0.4125,-0.413,-0.4142,-0.4145,-0.4163,-0.4143,-0.4162,-0.4163,-0.4161,-0.4201,-0.4208,-0.4239,-0.4187,-0.4187,-0.4188,0,-0.4063,-0.4073,-0.4103,-0.411,-0.4116,-0.4129,-0.4141,-0.4153,-0.4161,-0.4162,-0.417,-0.4167,-0.4184,-0.4169,-0.4194,-0.418,-0.4187,-0.419,-0.4191,-0.4194,-0.4178,-0.4205,-0.4249,-0.4254,-0.4195,-0.4194,-0.4194,0,-0.4092,-0.4113,-0.4134,-0.4139,-0.4148,-0.4157,-0.4161,-0.4169,-0.4177,-0.4187,-0.4193,-0.4205,-0.4212,-0.4222,-0.4222,-0.4211,-0.4246,-0.4232,-0.4248,-0.4248,-0.4257,-0.4257,-0.4304,-0.426,-0.426,-0.426,-0.426,0,-0.413,-0.4149,-0.4147,-0.416,-0.4181,-0.4178,-0.4198,-0.4201,-0.4208,-0.4221,-0.4215,-0.4227,-0.4226,-0.4238,-0.4238,-0.4259,-0.4262,-0.4263,-0.4263,-0.4264,-0.4264,-0.427,-0.4268,-0.4261,-0.4261,-0.4261,-0.426,0,-0.4167,-0.4167,-0.4189,-0.4195,-0.4197,-0.4212,-0.4217,-0.4229,-0.423,-0.4247,-0.4251,-0.4252,-0.4267,-0.4267,-0.4284,-0.4284,-0.4309,-0.4306,-0.4306,-0.4306,-0.4323,-0.4322,-0.4376,-0.4383,-0.4334,-0.4335,-0.4335,0,-0.4192,-0.4206,-0.4213,-0.4221,-0.4226,-0.4239,-0.4247,-0.4244,-0.4253,-0.4263,-0.4274,-0.4288,-0.4299,-0.4323,-0.4326,-0.4338,-0.4336,-0.4354,-0.4338,-0.4339,-0.4338,-0.4337,-0.4339,-0.4358,-0.4359,-0.4359,-0.4359,0,-0.4236,-0.4235,-0.4247,-0.4258,-0.4268,-0.4277,-0.4285,-0.4292,-0.429,-0.43,-0.4315,-0.4323,-0.434,-0.4354,-0.4366,-0.437,-0.4365,-0.4364,-0.4369,-0.4371,-0.4371,-0.4372,-0.4316,-0.4363,-0.4363,-0.4363,-0.4362,-0.4362,-0.4269,-0.4281,-0.4287,-0.43,-0.4306,-0.4314,-0.4325,-0.4327,-0.4339,-0.4353,-0.435,-0.4366,-0.4374,-0.4389,-0.4395,-0.4407,-0.4401,-0.4408,-0.441,-0.4412,-0.4414,-0.4368,-0.4409,-0.4409,-0.4409,-0.4409,-0.4409,0,-0.4313,-0.4317,-0.4329,-0.434,-0.435,-0.4343,-0.4351,-0.4361,-0.4375,-0.4382,-0.4393,-0.4409,-0.4422,-0.4426,-0.4439,-0.4448,-0.4446,-0.4452,-0.4452,-0.4453,-0.4418,-0.4413,-0.4453,-0.4453,-0.4453,-0.4453,-0.4453,-0.4453,-0.4338,-0.4358,-0.4357,-0.438,-0.4384,-0.4399,-0.4405,-0.4412,-0.4417,-0.4436,-0.4447,-0.4449,-0.4454,-0.4467,-0.4479,-0.448,-0.4485,-0.4492,-0.4492,-0.446,-0.4455,-0.4451,-0.4447,-0.4493,-0.4493,-0.4526,-0.4526,-0.4526]},{"header":{"parameterUnit":"m.s-1","parameterCategory":1,"la1":30.2991,"la2":30.254,"lo1":-89.0895,"lo2":-89.0444,"dy":0.0017,"dx":0.0017,"nx":28,"ny":28,"refTime":"2025-01-07T09:00:00:Z","depth":0,"parameterNumber":3,"parameterNumberName":"V-component_of_WINDS"},"data":[0,0,0,0,0,0,0,0,0,0,0,0,0,0,0,0,0,0,0,0,0,0,0,0,0,0,0,0,0,0,0,0,0,0,0,0,0,0,0,0,0,0,0,0,0,0,0,0,0,0,0,0,0,0,0,0,0,0,-5.3331,-5.3332,0,-5.3401,-5.3402,-5.3402,-5.3382,-5.338,-5.3379,-5.3377,-5.3444,-5.3447,-5.345,0,0,0,0,0,0,0,0,0,0,0,0,0,-5.3175,-5.3177,-5.3331,-5.3332,-5.3333,-5.3401,-5.3402,-5.3403,-5.3382,-5.338,-5.3378,-5.3377,-5.3443,-5.3446,-5.345,0,0,0,0,0,0,0,0,0,0,0,0,0,-5.3243,-5.3178,-5.3331,-5.3331,-5.3331,-5.3401,-5.3402,-5.3403,-5.3382,-5.338,-5.3378,-5.3376,-5.3442,-5.3446,-5.3451,-5.3522,0,0,-5.3465,-5.3467,0,0,0,0,0,0,0,0,-5.3239,-5.3249,-5.333,-5.3331,-5.3332,-5.338,-5.3371,-5.3443,-5.3383,-5.3363,-5.3377,-5.3375,-5.3424,-5.343,-5.3448,-5.3526,-5.3528,-5.3465,-5.3468,-5.347,-5.3471,0,0,0,0,0,0,0,-5.3235,-5.3246,-5.3358,-5.3331,-5.3332,-5.3326,-5.3333,-5.3384,-5.3404,-5.3364,-5.3363,-5.3372,-5.3424,-5.3443,-5.3449,-5.3529,-5.3465,-5.3469,-5.3472,-5.3474,-5.3671,-5.3673,0,0,0,0,0,0,-5.323,-5.3242,-5.3356,-5.336,-5.3279,-5.333,-5.3338,-5.3367,-5.3404,-5.3408,-5.3374,-5.3371,-5.3436,-5.3444,-5.3451,-5.3539,-5.347,-5.3474,-5.3477,-5.3668,-5.3671,-5.3674,0,0,0,0,0,0,-5.3227,-5.324,-5.3353,-5.3301,-5.3315,-5.3335,-5.3367,-5.3369,-5.3389,-5.3411,-5.3414,-5.339,-5.3435,-5.3445,-5.3506,-5.3541,-5.3477,-5.3481,-5.3665,-5.3669,-5.3672,-5.3714,0,0,0,0,0,0,-5.3222,-5.3239,-5.3268,-5.3302,-5.3318,-5.3408,-5.3369,-5.3372,-5.3397,-5.3394,-5.3427,-5.343,-5.3434,-5.3499,-5.351,-5.3546,-5.3484,-5.3662,-5.3667,-5.3671,-5.371,-5.3719,-5.3726,0,0,0,0,0,-5.3217,-5.3275,-5.3269,-5.3283,-5.3354,-5.341,-5.3419,-5.3424,-5.34,-5.3429,-5.3443,-5.3429,-5.3535,-5.3505,-5.3518,-5.3556,-5.366,-5.3666,-5.3671,-5.3706,-5.3717,-5.3726,0,0,0,0,0,0,-5.3242,-5.328,-5.3273,-5.3345,-5.3375,-5.3406,-5.3442,-5.3435,-5.347,-5.3466,-5.3468,-5.3476,-5.3538,-5.3553,-5.3519,-5.3628,-5.3594,-5.3602,-5.3616,-5.3627,-5.3635,-5.363,-5.3488,0,0,0,0,0,-5.3257,-5.3301,-5.333,-5.339,-5.3406,-5.3422,-5.3446,-5.3447,-5.3477,-5.3489,-5.3508,-5.3536,-5.3576,-5.3602,-5.364,-5.3711,-5.3718,-5.3744,-5.3752,-5.3759,-5.3766,-5.3806,-5.3817,-5.3692,-5.3692,-5.3692,0,0,-5.3286,-5.3312,-5.3339,-5.3396,-5.3419,-5.3464,-5.3432,-5.348,-5.3512,-5.3496,-5.3555,-5.357,-5.3602,-5.3669,-5.3699,-5.3683,-5.3802,-5.3766,-5.3771,-5.3775,-5.3813,-5.3824,-5.3835,-5.3695,-5.3695,-5.3694,0,0,-5.3363,-5.3386,-5.344,-5.3465,-5.3501,-5.3511,-5.3524,-5.3558,-5.3568,-5.3628,-5.3616,-5.3654,-5.3722,-5.3746,-5.3767,-5.3854,-5.3842,-5.3865,-5.3909,-5.3948,-5.3958,-5.3967,-5.3998,-5.401,-5.3872,-5.3872,-5.3873,0,-5.3394,-5.3462,-5.3468,-5.3518,-5.3543,-5.3532,-5.3586,-5.3609,-5.3655,-5.3672,-5.3653,-5.374,-5.376,-5.3833,-5.3855,-5.3871,-5.3886,-5.3862,-5.3956,-5.3965,-5.3974,-5.4004,-5.4015,-5.3875,-5.3875,-5.3875,-5.3874,0,-5.3499,-5.3547,-5.3585,-5.3633,-5.3662,-5.3713,-5.3726,-5.3755,-5.3754,-5.3766,-5.3827,-5.3851,-5.3895,-5.3912,-5.391,-5.3984,-5.3973,-5.3956,-5.3922,-5.3988,-5.4017,-5.4028,-5.3879,-5.3878,-5.3877,-5.3877,0,0,-5.3593,-5.3645,-5.3659,-5.3681,-5.3721,-5.3757,-5.3807,-5.3852,-5.3877,-5.3909,-5.3951,-5.4009,-5.3994,-5.4018,-5.4018,-5.4052,-5.4121,-5.403,-5.4031,-5.4047,-5.4205,-5.4219,-5.4232,-5.4113,-5.4116,-5.4117,-5.4202,0,-5.3674,-5.3766,-5.3773,-5.3855,-5.3899,-5.3889,-5.3933,-5.3962,-5.3975,-5.4012,-5.4025,-5.4067,-5.4043,-5.4058,-5.4091,-5.4105,-5.4152,-5.4099,-5.4152,-5.4154,-5.4145,-5.4247,-5.4261,-5.434,-5.4213,-5.4215,-5.4217,0,-5.378,-5.3818,-5.3905,-5.3941,-5.3959,-5.3999,-5.4041,-5.4077,-5.4109,-5.4116,-5.4143,-5.414,-5.419,-5.4155,-5.4225,-5.4189,-5.421,-5.4221,-5.4224,-5.4229,-5.419,-5.4255,-5.4365,-5.4378,-5.4234,-5.4233,-5.4231,0,-5.3841,-5.3914,-5.3976,-5.3995,-5.4037,-5.4065,-5.4084,-5.4114,-5.4141,-5.4176,-5.4193,-5.4233,-5.4256,-5.4286,-5.4293,-5.4267,-5.4363,-5.4328,-5.437,-5.437,-5.4391,-5.4389,-5.4507,-5.4404,-5.4404,-5.4403,-5.4403,0,-5.3931,-5.3985,-5.4004,-5.4042,-5.4102,-5.4109,-5.4168,-5.4184,-5.4211,-5.4252,-5.4245,-5.4282,-5.4289,-5.4328,-5.4333,-5.4391,-5.44,-5.4406,-5.4407,-5.4408,-5.4407,-5.4422,-5.4417,-5.4407,-5.4406,-5.4405,-5.4405,0,-5.4009,-5.4025,-5.4092,-5.4127,-5.4137,-5.418,-5.4209,-5.4245,-5.4258,-5.4309,-5.4321,-5.4339,-5.4385,-5.4395,-5.4448,-5.4451,-5.452,-5.4515,-5.451,-5.451,-5.4551,-5.4547,-5.4683,-5.4701,-5.4586,-5.4587,-5.4588,0,-5.4066,-5.4107,-5.4148,-5.4176,-5.4197,-5.4241,-5.4269,-5.4277,-5.4306,-5.4346,-5.4377,-5.4422,-5.4459,-5.4531,-5.4548,-5.4589,-5.4585,-5.463,-5.4591,-5.459,-5.4587,-5.4584,-5.4589,-5.4637,-5.4638,-5.4639,-5.464,0,-5.4165,-5.4171,-5.4212,-5.4257,-5.4291,-5.4326,-5.4359,-5.4381,-5.4394,-5.4427,-5.4474,-5.4503,-5.4558,-5.4603,-5.4644,-5.4661,-5.4653,-5.4652,-5.4664,-5.4665,-5.4661,-5.4665,-5.4531,-5.4649,-5.4648,-5.4648,-5.4647,-5.4647,-5.4234,-5.4272,-5.4307,-5.4353,-5.438,-5.4411,-5.4448,-5.4465,-5.4506,-5.4553,-5.4555,-5.4607,-5.4638,-5.4693,-5.4712,-5.4752,-5.4738,-5.4755,-5.4759,-5.4764,-5.4768,-5.4655,-5.4759,-5.4759,-5.4759,-5.4758,-5.4758,0,-5.4334,-5.4357,-5.44,-5.4448,-5.4484,-5.4475,-5.4512,-5.4543,-5.4589,-5.462,-5.4657,-5.4711,-5.4755,-5.4776,-5.4819,-5.4847,-5.4844,-5.4857,-5.4856,-5.486,-5.4778,-5.4764,-5.4859,-5.4859,-5.4859,-5.4859,-5.4859,-5.4859,-5.439,-5.4453,-5.4463,-5.4539,-5.456,-5.4613,-5.4635,-5.4664,-5.4688,-5.4751,-5.4788,-5.4802,-5.4829,-5.4874,-5.4913,-5.4918,-5.4934,-5.495,-5.4953,-5.4876,-5.4866,-5.4856,-5.4843,-5.4953,-5.4953,-5.5032,-5.5033,-5.5033]}]]